Preview of NWS' New Version of Forecast
This preview is not operational and should not be used for support decisions.

Regional Weather Roundup (RWR)

Issued by National Weather Service (NWS)

                            
000
ASUS42 KTBW 182316
RWRFL 
FLORIDA REGIONAL WEATHER ROUNDUP
NATIONAL WEATHER SERVICE TAMPA BAY RUSKIN FL
700 PM EDT SAT MAY 18 2019

NOTE: "FAIR" INDICATES FEW OR NO CLOUDS BELOW 12,000 FEET WITH NO
SIGNIFICANT WEATHER AND/OR OBSTRUCTIONS TO VISIBILITY.

FLZ001>010-012>015-112-114-115-190000-
PANHANDLE FLORIDA
  
CITY           SKY/WX    TMP DP  RH WIND       PRES   REMARKS
PENSACOLA      FAIR      82  69  64 SE15      29.96F                  
PENSACOLA NAS  FAIR      81  71  71 SE15      29.96F                  
MILTON NAS     FAIR      82  64  54 S12       29.96F                  
CRESTVIEW      FAIR      85  61  44 S10       29.98F                  
DUKE FIELD     FAIR      84  65  53 S10       29.96F                  
VALPARAISO     FAIR      81  70  68 S12       29.96F                  
MARY ESTHER    SUNNY     81  71  71 S10       29.96F                  
PANAMA CITY    FAIR      83  68  60 S9        29.97S                  
TYNDALL AFB    FAIR      81  70  69 S12       29.96F                  
APALACHICOLA   FAIR      82  68  62 SW9       29.98S                  

STATION/POSITION SKY/WX   TEMP    WIND        PRES    WAVE   SWELL
                          AIR SEA DIR/SP/G            HT/PER HT/PER
                          (F)     (DEG/KT/KT) (MB)    (FT/S) (FT/S)
30.1N   87.6W                                   N/A     3/ 4
29.2N   88.2W                     120/ 12/ 14 1014.2R   4/ 6   2/ 9
PANAMA CITY BEAC           79 82  170/  9/ 10 1015.5F
TOWER C          NOT AVBL

$$
FLZ011-016>038-118-127-128-134-139-239-190000-
NORTH FLORIDA
  
CITY           SKY/WX    TMP DP  RH WIND       PRES   REMARKS
MARIANNA       PTSUNNY   86  61  42 SW15      29.95S                  
TALLAHASSEE    FAIR      89  62  40 S8        29.95F                  
PERRY          FAIR      74  71  88 W3        29.97F                  
LIVE OAK       MOSUNNY   90  63  40 E3        29.94F                  
CROSS CITY     FAIR      81  72  74 W7        29.97S                  
GAINESVILLE    FAIR      89  60  37 E9        29.99S                  
WILLISTON      FAIR      86  58  38 SE5       29.97S                  
PALATKA        FAIR      84  57  39 SE12      30.00R                  
MAYPORT NAS    FAIR      80  66  62 SE14      29.99S                  
JACKSONVILLE   FAIR      84  60  44 E14       29.97S                  
JAX NAS        FAIR      86  60  41 SE15      29.99R                  
JAX CECIL      SUNNY     88  61  40 E12       29.97S                  
FERNANDINA BEA FAIR      80  67  63 SE14      29.99S                  
ST AUGUSTINE   FAIR      79  66  64 SE10      30.01S                  
PALM COAST     SUNNY     79  64  61 SE8       30.01S                  

STATION/POSITION SKY/WX   TEMP    WIND        PRES    WAVE   SWELL
                          AIR SEA DIR/SP/G            HT/PER HT/PER
                          (F)     (DEG/KT/KT) (MB)    (FT/S) (FT/S)
SHELL POINT      NOT AVBL
KEATON BEACH               79     250/  9/ 10 1015.2S
CEDAR KEY                  81     280/  4/  6 1014.9F
FERNANDINA                 82 80  150/ 10/ 15 1016.2S
30.7N   81.3W                 78                N/A     2/ 3
MAYPORT                    80 80  150/  8/ 14 1016.0R
31.4N   80.9W              78 77  170/ 12/ 14 1015.5R   2/ 4   2/14
ST AUGUSTINE               78 81  140/ 13/ 14 1016.2F

$$
FLZ040-043>046-052-053-057-058-063-144-190000-
INTERIOR CENTRAL FLORIDA
  
CITY           SKY/WX    TMP DP  RH WIND       PRES   REMARKS
OCALA          FAIR      86  58  38 E8        29.98S                  
LEESBURG       FAIR      85  52  32 E9        29.99S                  
SANFORD        FAIR      81  57  43 E8        30.00S                  
ORLANDO EXEC   FAIR      83  57  41 E10       29.99S                  
ORLANDO INTL   FAIR      81  59  47 E13G22    29.99S                  
KISSIMMEE      FAIR      83  58  42 E9        30.00S                  
WINTER HAVEN   FAIR      86  53  32 E10       29.99S                  
LAKELAND       MOSUNNY   84  55  37 E10       29.98S                  
BARTOW         FAIR      86  52  30 NE7       29.97R                  
SEBRING        FAIR      85  63  47 NE16      29.97S                  
OKEECHOBEE     FAIR      81  63  54 E7        29.98R                  

$$
FLZ041-047-054-059-064-141-147-190000-
EAST CENTRAL FLORIDA
  
CITY           SKY/WX    TMP DP  RH WIND       PRES   REMARKS
ORMOND BEACH   SUNNY     79  63  57 E8        30.01S                  
DAYTONA BEACH  FAIR      79  63  57 VRB7      30.01S                  
DELAND         FAIR      81  59  47 E12       30.00S                  
NEW SMYRNA BEA SUNNY     81  61  50 E8        30.02F                  
JFK SPACE CTR  FAIR      79  66  63 E8        30.00S                  
TITUSVILLE     MOSUNNY   82  61  47 E8        30.01S                  
CAPE CANAVERAL FAIR      78  56  46 E7        29.99F                  
PATRICK AFB    FAIR      78  64  61 E9        29.99F                  
MELBOURNE      FAIR      80  63  55 E10       30.00S                  
VERO BEACH     FAIR      79  64  60 E10       30.00R                  
FT PIERCE      FAIR      79  64  60 NE6       29.99S                  

STATION/POSITION SKY/WX   TEMP    WIND        PRES    WAVE   SWELL
                          AIR SEA DIR/SP/G            HT/PER HT/PER
                          (F)     (DEG/KT/KT) (MB)    (FT/S) (FT/S)
28.5N   80.2W              78      90/  8/ 10 1016.2
28.9N   78.5W              77 79  120/ 14/ 17 1016.6R   3/ 6   2/13
TRIDENT PIER               79 81   70/  5/  8 1017.3F
28.4N   80.5W                 80                N/A     2/14   2/14
27.5N   80.2W                 79                N/A     2/15   2/15

$$
FLZ050-056-061-142-242-148-248-149-249-151-251-155-255-
160-260-190000-
WEST CENTRAL FLORIDA
  
CITY           SKY/WX    TMP DP  RH WIND       PRES   REMARKS
CRYSTAL RIVER  PTSUNNY   84  66  54 CALM      29.97S                  
INVERNESS      FAIR      86  61  42 E8        29.98S                  
BROOKSVILLE    FAIR      86  59  39 E8        29.97S                  
CLEARWATER AIR FAIR      81  63  54 NW8       29.96S                  
ST PETE CLEARW FAIR      85  65  51 N6        29.95S                  
TAMPA INTL     FAIR      86  62  44 VRB6      29.96S                  
TAMPA EXEC     FAIR      82  61  47 E5        29.97R                  
PLANT CITY     FAIR      88  55  33 E6        29.99R                  
MACDILL AFB    FAIR      86  56  36 SE8       29.95F                  
PETER O KNIGHT PTSUNNY   88  55  33 E7        29.96S                  
ST PETERSBURG  FAIR      86  61  42 E10       29.94S                  
SARASOTA       FAIR      88  52  29 NE8       29.93S                  
VENICE         FAIR      86  68  54 NW12      29.95S                  

STATION/POSITION SKY/WX   TEMP    WIND        PRES    WAVE   SWELL
                          AIR SEA DIR/SP/G            HT/PER HT/PER
                          (F)     (DEG/KT/KT) (MB)    (FT/S) (FT/S)
27.3N   84.2W                 79                N/A     2/ 5
CLEARWATER BEACH           81 85  320/ 10/ 11 1014.7S
MIDDLE TAMPA BAY           85      90/  8/ 12 1014.4S
VENICE                     82 81  310/ 11/ 12 1014.0R

$$
FLZ066-069-070-075>078-162-262-165-265-190000-
SOUTHWEST FLORIDA AND KEYS
  
CITY           SKY/WX    TMP DP  RH WIND       PRES   REMARKS
PUNTA GORDA    FAIR      88  52  29 E8        29.96R                  
FT MYERS       FAIR      87  56  34 NE9       29.93S                  
SOUTHWEST INTL FAIR      87  61  41 E7        29.94R                  
NAPLES         FAIR      83  69  62 W9        29.93S                  
MARCO ISLAND   FAIR      85  69  58 W8        29.94F                  
IMMOKALEE      PTSUNNY   88  66  48 E12G18    29.93R                  
MARATHON       FAIR      86  71  60 SE9       29.94F                  
KEY WEST NAS   FAIR      85  71  63 E10       29.95S                  
KEY WEST INTL  FAIR      83  72  69 E10       29.95S                  

STATION/POSITION SKY/WX   TEMP    WIND        PRES    WAVE   SWELL
                          AIR SEA DIR/SP/G            HT/PER HT/PER
                          (F)     (DEG/KT/KT) (MB)    (FT/S) (FT/S)
NAPLES                     87 85              1013.8S
DRY TORTUGAS               82      90/ 11/ 12 1014.1R
SAND KEY                   81                 1014.1R
SOMBRERO KEY               81                 1013.3F

$$
FLZ067-068-071>074-168-172>174-190000-
SOUTHEAST FLORIDA 
  
CITY           SKY/WX    TMP DP  RH WIND       PRES   REMARKS
W PALM BEACH   FAIR      81  67  62 NE10      29.99R                  
BOCA RATON     MOSUNNY   81  70  69 E12       29.97F                  
FT LAUDER-EXEC FAIR      82  69  64 E12       29.96F                  
FT LAUDERDALE  FAIR      80  69  69 E17       29.96S                  
POMPANO BEACH  FAIR      82  69  64 E13       29.96F                  
PEMBROKE PINES FAIR      80  68  66 E13       29.98S                  
OPA LOCKA      FAIR      81  69  67 E14       29.98R                  
MIAMI          PTSUNNY   82  69  64 E16       29.97R                  
WEST KENDALL   FAIR      81  70  69 E16       29.96S                  
HOMESTEAD      DRIZZLE   82  72  69 E12       29.95S                  

STATION/POSITION SKY/WX   TEMP    WIND        PRES    WAVE   SWELL
                          AIR SEA DIR/SP/G            HT/PER HT/PER
                          (F)     (DEG/KT/KT) (MB)    (FT/S) (FT/S)
VIRGINIA KEY               80 85   50/ 12/ 14 1014.1S
LAKE WORTH                 78 83              1016.4S

$$